Location: Betzi
(47.2343°N, 9.5260°E)
Time: 23:31:52
(UTC+00:00)

Meteor 1-28 Rocket - Pass Details

Date: 27 May 2022
Orbit: 499 x 518 km, 97.4° (Epoch: 26 June)

Event Time Altitude Azimuth Distance (km) Brightness Sun altitude
Exits shadow 01:46:50 17° 176° (S) 1,339 4.8 -13.8°
Maximum altitude 01:49:36 70° 258° (WSW) 549 3.1 -13.6°
Drops below altitude 10° 01:53:20 10° 343° (NNW) 1,735 6.4 -13.2°
Sets 01:55:26 0° 346° (NNW) 2,623 7.4 -13.0°
